Voltar ao catálogo

ELECTRON KICK STAGE R/B

AtivoVLEO
NORAD 100244·ROCKET BODY·🇺🇸 United States

Lançado Aug 6, 2026 de Rocket Lab Launch Complex 1

Loading…

Próximas Passagens (próximas 24 horas)

TLE

AtualizadoSource: Space-Track

Época: Sep 14, 2026, 02:24 UTC

1 A0244U 26180B   26257.10068407  .00002524  00000-0  22877-3 0  9997
2 A0244  42.0017 177.0014 0007156 163.4320 196.6739 14.97390534  5814

Acompanhe ELECTRON KICK STAGE R/B em tempo real com AllMySat

Download on the App Store